Hourly Data Report for February 01, 2017

All times are specified in Local Standard Time (LST). Add 1 hour to adjust for Daylight Saving Time where and when it is observed.

TORONTO CITY
ONTARIO

43°40'00.000" N
79°24'00.000" W
112.50 m
6158355
71508
XTO

Download Data

Hourly Data (February 2017)
Hourly Data Report for February 1, 2017
TIME Temp Definition
°C
Dew Point Definition
°C
Rel Hum Definition
%
Wind Dir Definition
10's deg

Wind Spd Definition
km/h
Visibility Definition
km
Stn Press Definition
kPa
Hmdx Definition


Wind Chill Definition


Weather Definition


00:00 -2.8 -4.0 91 LegendMM LegendMM   99.19     LegendNANA
01:00 -2.9 -4.2 91 LegendMM LegendMM   99.23     LegendNANA
02:00 -3.1 -4.2 92 LegendMM LegendMM   99.28     LegendNANA
03:00 -2.6 -3.8 92 LegendMM LegendMM   99.33     LegendNANA
04:00 -1.3 -4.0 82 LegendMM LegendMM   99.34     LegendNANA
05:00 -1.1 -4.3 79 LegendMM LegendMM   99.37     LegendNANA
06:00 -0.8 -3.9 80 LegendMM LegendMM   99.39     LegendNANA
07:00 -0.2 -4.0 76 LegendMM LegendMM   99.46     LegendNANA
08:00 -0.1 -4.1 74 LegendMM LegendMM   99.54     LegendNANA
09:00 0.1 -4.2 73 LegendMM LegendMM   99.58     LegendNANA
10:00 1.3 -4.2 67 LegendMM LegendMM   99.64     LegendNANA
11:00 1.6 -4.2 65 LegendMM LegendMM   99.71     LegendNANA
12:00 2.1 -4.8 60 LegendMM LegendMM   99.74     LegendNANA
13:00 2.1 -6.4 53 LegendMM LegendMM   99.74     LegendNANA
14:00 3.1 -7.1 47 LegendMM LegendMM   99.75     LegendNANA
15:00 2.5 -7.2 49 LegendMM LegendMM   99.83     LegendNANA
16:00 2.2 -7.8 48 LegendMM LegendMM   99.89     LegendNANA
17:00 1.7 -6.3 55 LegendMM LegendMM   99.99     LegendNANA
18:00 1.4 -8.0 50 LegendMM LegendMM   100.07     LegendNANA
19:00 1.5 -6.8 54 LegendMM LegendMM   100.13     LegendNANA
20:00 -0.5 -3.3 82 LegendMM LegendMM   100.17     LegendNANA
21:00 -0.5 -4.2 76 LegendMM LegendMM   100.16     LegendNANA
22:00 -0.5 -5.0 72 LegendMM LegendMM   100.14     LegendNANA
23:00 -1.0 -4.4 77 LegendMM LegendMM   100.18     LegendNANA

Notes on Data Quality.

Legend

  • E = Estimated
  • M = Missing
  • NA = Not Available
Date modified: